User: anonymous   Login
Location: Geroldsau
(48.7259°N, 8.2466°E)
Time: 01:27:07
(UTC+00:00)
Language:

Cosmos 2292 Rocket - Orbit

View from above orbital plane
View from above orbital plane
View from above satellite
View from above satellite

Ground track
Ground track

The orbit data is extracted from the following two-line orbital elements,

1 23279U 94061B   21264.29507896  .00001164  00000-0  73634-4 0  9993
2 23279  82.9682 226.9167 0731491 137.1448 228.9189 13.94508570341892
Epoch (UTC): 21 September 2021 07:04:54
Eccentricity: 0.0731491
inclination: 82.9682°
perigee height: 379 km
apogee height: 1446 km
right ascension of ascending node: 226.9167°
argument of perigee: 137.1448°
revolutions per day: 13.94508570
mean anomaly at epoch: 228.9189°
orbit number at epoch: 34189

The dashed part of the orbit path shows where the satellite is in the earth's shadow,  

DLR